Location: Mexico
(19.4000°N, 99.1500°W)
Time: 06:41:21
(UTC-06:00)

ISS - Pass Details

Date: 10 December 2019
Orbit: 411 x 421 km, 51.6° (Epoch: 11 December)

Event Time Altitude Azimuth Distance (km) Brightness Sun altitude
Rises 19:14:51 0° 333° (NNW) 2,351 0.2 -17.5°
Reaches altitude 10° 19:17:06 10° 345° (NNW) 1,489 -1.0 -18.0°
Enters shadow 19:18:07 17° 355° (N) 1,143 -1.7 -18.2°
